Regional Weather Roundup
Issued by NWS

Home | Current Version | Previous Version | Graphics & Text | Print | Product List | Glossary On
Versions: 1 2 3 4 5 6 7 8 9 10 11 12 13 14 15 16 17 18 19 20 21 22 23 24 25 26 27 28 29 30 31 32 33 34 35 36 37 38 39 40 41 42 43 44 45 46 47 48 49 50
132
ASUS45 KSLC 232310
RWRUT

UTAH REGIONAL WEATHER ROUNDUP
NATIONAL WEATHER SERVICE SALT LAKE CITY UT
500 PM MDT SAT JUL 23 2016

UTZ001>011-023>025-240000-

NORTHERN UTAH

CITY           SKY/WX    TMP DP  RH WIND       PRES   REMARKS
BRIGHAM CITY     N/A     90  18   7 W5        30.07F
HILL AFB       SUNNY     89  21   8 N8        30.10F
LOGAN          SUNNY     88  29  12 VRB5      30.07F
OGDEN          SUNNY     90  24   9 VRB7      30.07F
PROVO AIRPORT  SUNNY     91  36  14 W9        30.05F
SALT LAKE CITY MOSUNNY   93  19   7 NW12      30.05F
VERNAL         CLOUDY    97  30   9 W14G23    30.03F HX  91
WENDOVER       SUNNY     90  28  11 E9        30.06F
HEBER CITY     SUNNY     91  28  10 SW10      30.11F

$$

UTZ012>022-026-027-240000-

SOUTHERN/CENTRAL UTAH

CITY           SKY/WX    TMP DP  RH WIND       PRES   REMARKS
BLANDING       MOSUNNY   87  43  21 N14       30.20F
BRYCE CANYON   MOSUNNY   86  32  14 SW9       30.28F
CEDAR CITY     SUNNY     97  35  11 SW15G23   30.08F HX  92
DELTA          SUNNY     95  25   8 CALM      30.04F
MILFORD        SUNNY     97  27   8 CALM      30.02F HX  91
MOAB/CYNLANDS  SUNNY    100  36  11 W8        29.96F HX  94
PRICE          SUNNY     91  38  15 S9        30.10F
ST GEORGE      CLEAR    108  39   9 W15       29.86F HX 101
KANAB          SUNNY    100  34  10 SW13G18   30.05F HX  94

$$

REGIONAL REPORTS     COLORADO/ARIZONA

CITY           SKY/WX    TMP DP  RH WIND       PRES   REMARKS
CRAIG, CO      CLOUDY    91  27  10 SW13G23   30.14F
GRAND JUNCTION SUNNY     98  40  13 W9        30.01F HX  93
RIFLE          SUNNY     91  38  15 N14G25    30.09S
MONTROSE       CLOUDY    92  39  15 NW8       30.11F
CORTEZ         SUNNY     96  37  12 W12       30.12F HX  91
PAGE, AZ       MOSUNNY  101  38  11 VRB3      29.95F HX  95
GRAND CANYON   SUNNY     94  40  15 SW12G23   30.21F HX  90
KINGMAN        SUNNY    104  43  12 SW17G24   29.96F HX  99
FLAGSTAFF      PTSUNNY   86  42  21 S7        30.26F

$$

REGIONAL REPORTS    NEVADA/IDAHO/WYOMING

CITY           SKY/WX    TMP DP  RH WIND       PRES   REMARKS
LAS VEGAS, NV  MOSUNNY  112  22   4 S9        29.74F HX 103
ELY            SUNNY     93  16   6 S18G24    30.13F
ELKO           SUNNY     90   6   4 VRB6      30.11F
POCATELLO, ID  MOSUNNY   84  24  11 W18       30.12F
BURLEY         SUNNY     80  38  22 NW8G20    30.10F
EVANSTON, WY   SUNNY     83  11   6 W22G29    30.25F
ROCK SPRINGS   SUNNY     87  14   6 W22G28    30.18F
KEMMERER         N/A    N/A N/A N/A W17G31    30.26S

$$




USA.gov is the U.S. government's official web portal to all federal, state and local government web resources and services.